Probability
9 5 2 1 1 0 0 0 0 0 0 0 0 0 0 0 0 0 0 0 0 0 0 1 3 4 4 3 4 5 6 5 4 3 4 5 6 6 5 4 3 1 0 0 0 0 0 0 0
6 3 1 0 0 0 0 0 0 0 0 0 0 0 0 0 0 0 0 0 0 0 0 1 3 4 4 3 3 4 5 4 3 3 4 5 6 5 5 4 3 1 0 0 0 0 0 0 0
4 2 0 0 0 0 0 0 0 0 0 0 0 0 0 0 0 0 0 0 0 0 1 3 4 4 3 3 3 3 3 3 3 4 4 5 5 4 4 4 3 1 0 0 0 0 0 0 0
6 4 1 0 0 0 0 0 0 0 0 0 0 0 0 0 0 0 0 0 0 0 1 3 4 4 3 2 2 3 3 3 3 4 4 5 5 5 5 4 3 2 1 1 1 1 0 0 0
9 7 3 0 0 0 0 0 0 0 0 0 0 0 0 0 0 1 1 0 0 0 1 1 3 4 3 2 1 1 2 3 4 4 5 6 6 7 7 5 3 3 3 3 2 2 1 0 0
9 7 3 0 0 0 0 0 0 0 0 0 0 0 0 0 1 2 2 1 1 1 1 1 3 4 4 2 0 0 1 1 2 4 5 6 6 7 6 4 3 3 4 3 3 2 1 0 0
9 5 1 0 0 0 0 0 0 0 0 0 0 0 0 1 1 2 2 2 2 2 3 3 4 4 5 3 1 0 0 0 1 2 4 5 4 4 3 3 3 3 3 3 3 2 1 0 0
8 4 1 0 0 0 0 0 0 0 0 1 0 0 1 1 1 1 1 1 2 2 3 5 6 6 6 5 2 1 0 0 1 2 3 3 2 1 1 1 2 3 2 1 1 2 2 1 0
6 3 1 0 0 0 0 0 0 0 0 1 1 1 1 1 1 1 1 0 1 1 2 4 6 6 6 5 4 2 1 0 1 2 2 2 1 0 0 0 1 1 1 1 0 1 2 1 0
2 1 1 0 0 0 0 0 0 0 0 1 2 3 2 1 2 3 2 0 0 0 0 2 4 5 5 4 4 3 1 0 0 1 1 1 0 0 0 0 0 1 1 0 0 1 1 1 0
0 0 0 0 0 0 0 0 0 0 0 1 2 3 2 1 2 3 2 0 0 0 0 0 1 2 2 3 3 3 2 0 0 0 0 0 0 0 0 0 0 1 0 0 0 0 0 0 0
0 0 0 0 0 0 0 0 0 0 0 1 2 3 2 1 1 1 1 0 0 0 0 0 0 0 1 3 4 4 3 1 0 0 0 0 0 0 0 0 0 0 0 0 0 0 0 0 0
0 0 0 0 0 0 0 0 0 0 0 0 1 2 1 0 0 0 0 0 0 0 0 0 0 0 2 4 5 4 2 0 0 0 0 0 0 0 0 0 0 0 0 0 0 0 0 0 0
0 0 0 0 0 0 0 0 0 0 0 0 0 1 1 1 0 0 0 0 0 1 1 1 1 1 2 4 4 3 1 0 0 0 0 0 0 0 0 0 0 0 0 0 0 0 0 0 0
0 0 0 0 0 0 0 0 0 0 0 0 0 1 2 2 1 0 0 0 1 3 3 3 3 3 3 3 3 3 2 1 1 0 0 0 0 0 0 0 0 0 0 0 0 0 0 0 0
0 0 0 0 0 0 0 1 0 0 0 0 0 1 2 3 2 2 2 3 5 6 7 6 6 6 5 3 3 3 3 2 1 0 0 0 0 0 0 0 0 0 0 0 0 0 0 0 0
0 0 0 0 0 0 0 0 0 0 0 0 0 1 2 3 3 4 6 8 9 9 8 7 6 6 5 4 3 3 2 1 0 0 0 0 0 0 0 0 0 0 0 0 0 0 0 0 0
0 0 0 0 0 0 0 0 1 1 1 1 1 1 2 3 4 6 8 11 12 10 8 8 7 6 6 4 3 3 1 0 0 0 1 1 1 2 1 0 0 0 0 0 1 0 0 0 0
0 0 0 0 0 0 0 0 1 2 3 2 2 2 3 4 6 6 9 13 14 12 11 10 9 7 6 5 4 2 1 0 0 1 2 2 3 3 2 1 0 0 0 0 1 0 0 0 0
0 0 0 0 0 0 0 0 1 2 3 3 3 3 4 5 6 6 9 15 18 16 14 12 11 10 8 6 5 3 1 0 0 1 2 3 3 3 3 3 2 1 1 1 1 1 0 1 1
0 0 0 0 0 0 0 0 1 2 3 3 3 3 4 5 6 7 10 17 21 19 16 14 13 12 9 8 7 4 2 0 0 1 2 3 3 4 4 4 3 2 2 2 2 1 0 0 0
0 0 0 0 1 0 0 0 1 2 3 3 3 3 4 6 7 7 10 16 19 18 17 15 14 11 10 9 9 6 3 1 1 1 2 3 4 5 6 5 4 3 3 4 3 2 1 1 1
0 0 0 0 0 0 0 0 1 2 3 3 3 3 3 6 7 6 9 15 17 16 16 15 12 10 9 9 8 6 3 1 0 0 1 2 4 6 6 5 4 4 4 3 3 3 2 2 2
0 0 0 0 0 0 0 0 0 1 2 3 2 2 2 6 8 8 11 17 18 15 13 13 12 11 10 10 8 6 3 1 0 0 0 1 3 6 6 5 4 4 5 4 4 4 4 4 4
0 0 0 0 0 0 0 0 0 0 1 1 2 2 4 7 10 11 15 20 20 17 14 14 14 13 12 11 9 8 6 3 1 1 1 2 5 6 7 6 6 6 7 7 6 6 6 6 6
0 0 0 0 0 0 1 1 1 1 1 2 3 5 8 10 12 15 20 23 22 20 19 18 18 17 15 13 11 9 8 5 4 3 4 5 7 7 8 8 9 9 9 9 9 9 8 8 7
0 0 0 0 0 0 1 1 1 1 3 4 6 9 12 13 14 19 24 26 24 23 23 23 22 21 18 15 12 10 8 7 6 6 7 8 8 8 9 11 12 11 10 10 10 9 9 9 9
0 0 0 0 0 0 1 1 1 2 5 7 9 13 15 14 16 20 24 25 25 26 26 24 23 22 20 17 13 10 10 10 10 10 10 10 9 10 13 16 15 14 13 12 11 10 10 10 10
0 0 0 0 0 0 0 0 0 3 7 11 13 17 19 18 18 20 20 22 24 26 27 26 25 24 23 18 15 13 12 12 13 14 14 13 12 14 17 19 19 17 16 15 14 13 11 11 10
0 0 0 0 0 0 0 0 0 3 9 14 17 20 22 21 20 19 17 19 23 25 26 28 28 27 24 20 16 16 14 14 15 17 17 14 13 16 19 20 19 18 16 17 18 16 13 12 11
Wind_Speed
10 7 3 1 3 4 4 3 7 8 7 7 9 10 9 7 5 6 3 7 8 5 3 5 8 9 10 11 12 13 14 15 15 15 16 17 17 18 18 19 19 19 19 19 19 19 18 18 17
7 5 1 2 4 4 3 5 9 10 11 11 11 12 9 7 7 8 4 7 7 6 4 6 10 10 11 11 12 13 14 15 15 16 16 17 17 17 18 18 18 18 18 18 18 18 17 17 16
6 3 2 3 2 5 5 6 11 13 11 9 7 7 6 5 6 6 7 9 7 5 4 6 11 11 12 12 12 12 14 14 15 16 16 16 17 17 17 17 17 17 17 18 17 17 16 16 15
3 2 3 3 4 4 7 8 11 13 10 9 9 7 5 5 5 8 10 10 8 5 4 7 12 11 11 11 12 12 13 14 14 15 15 16 16 16 16 17 16 16 16 16 16 16 15 14 14
1 3 3 3 4 5 8 10 11 11 6 9 11 9 5 5 11 13 11 10 8 6 4 6 11 11 11 11 12 12 12 13 13 14 14 15 15 15 16 15 15 15 15 15 15 14 14 13 12
2 3 3 3 6 6 7 11 14 14 14 13 11 8 4 6 11 11 10 9 8 7 5 6 10 11 11 11 11 11 12 12 12 13 14 14 14 14 14 14 14 14 14 14 13 13 12 11 10
3 3 3 5 6 7 7 9 11 12 12 9 10 7 4 5 9 10 10 9 8 7 5 4 5 6 9 10 10 10 11 11 12 12 13 13 13 13 13 13 13 13 13 12 11 11 10 9 8
4 3 3 4 6 6 7 7 10 13 10 12 8 8 6 7 9 10 9 8 7 6 5 4 3 3 3 5 9 10 10 11 12 12 12 13 13 13 13 11 11 12 11 10 10 9 8 7 6
4 4 3 5 7 7 10 11 8 9 11 7 6 7 10 11 10 9 8 6 6 5 4 4 4 3 3 3 7 7 9 10 10 9 12 10 5 5 7 9 11 11 10 9 8 7 6 5 4
4 4 6 7 8 9 12 13 9 9 11 10 10 10 11 10 10 9 8 7 6 6 5 5 5 4 3 4 4 2 3 4 3 3 4 4 3 4 6 9 11 10 9 8 7 6 5 3 1
5 6 5 7 9 10 10 9 8 12 9 12 15 14 12 10 9 9 8 7 7 7 6 5 5 4 4 3 3 2 2 2 2 3 4 3 3 3 3 3 5 5 5 3 3 2 1 1 1
4 4 5 6 8 9 10 9 8 9 11 13 14 14 11 10 9 9 8 7 6 6 6 5 5 5 4 4 3 3 2 2 2 3 4 4 3 3 3 2 3 2 2 2 2 1 1 2 2
5 4 5 7 9 9 10 10 10 10 13 13 14 13 11 11 9 8 8 7 7 7 6 5 6 5 5 4 3 4 3 3 3 3 3 5 4 4 3 2 2 2 2 2 2 2 2 2 2
4 6 6 7 8 9 12 10 8 11 14 14 13 11 11 11 10 8 8 7 7 7 6 5 6 5 5 4 3 3 3 3 3 3 4 5 4 4 3 3 2 2 2 2 2 3 2 2 2
3 6 4 4 5 6 11 6 9 14 14 13 12 11 10 10 11 11 10 9 9 8 6 6 6 5 5 4 4 3 3 3 3 3 3 4 4 4 4 3 2 2 2 2 2 2 2 2 2
4 5 2 3 3 5 8 6 9 14 14 12 11 11 10 10 11 10 10 9 9 9 7 6 7 6 5 4 3 3 3 3 2 2 3 4 4 4 3 2 2 2 2 2 2 2 2 1 1
4 2 1 3 2 4 5 6 10 11 13 11 11 10 10 10 9 9 10 10 10 9 8 7 6 6 4 4 3 3 3 2 2 2 2 3 4 4 3 2 2 2 2 1 2 2 2 2 1
3 3 3 4 3 2 2 4 11 12 12 11 10 10 10 11 11 11 11 10 10 9 8 7 6 6 5 3 2 2 2 1 1 2 2 3 3 4 3 2 2 2 2 1 1 2 2 2 2
7 4 4 6 5 3 4 5 11 12 11 10 9 9 10 11 10 10 11 11 10 8 7 7 7 6 4 3 2 2 1 1 1 1 3 3 3 4 3 3 2 2 2 2 2 2 2 1 2
4 4 5 3 4 4 3 2 7 10 12 12 12 10 11 10 9 10 10 10 10 10 8 8 8 6 5 4 3 2 2 2 1 1 2 3 3 4 4 4 3 2 2 2 2 2 2 1 2
6 7 7 5 2 4 4 1 2 5 7 8 10 11 11 14 13 13 12 11 11 10 10 9 8 6 5 4 2 2 2 1 0 0 1 3 3 3 4 4 3 3 3 2 2 3 3 2 1
6 7 7 5 4 2 4 3 6 6 6 9 11 10 12 12 12 12 13 13 13 12 10 8 8 7 6 5 4 3 3 2 2 2 2 2 3 3 4 4 4 3 3 3 3 3 3 3 2
8 6 5 4 4 1 0 4 6 3 6 10 11 12 12 12 13 14 14 14 13 12 10 9 8 7 7 6 6 5 3 2 2 1 2 2 2 3 4 4 4 4 3 3 3 3 3 2 3
5 2 4 4 4 0 4 4 6 7 11 10 10 11 11 12 13 13 13 12 11 11 10 9 9 8 7 7 6 6 5 4 3 2 2 2 2 2 3 4 4 4 3 3 3 3 3 2 2
2 5 3 4 3 5 3 3 9 10 10 12 12 12 12 12 13 13 13 13 12 12 12 10 10 9 8 7 7 6 6 6 5 4 3 3 2 2 3 3 4 3 3 3 3 3 3 3 3
5 9 8 5 4 4 3 4 8 8 8 9 9 10 10 11 12 13 14 14 13 14 12 11 11 9 9 8 7 6 6 4 4 4 4 4 3 3 4 4 4 4 4 4 3 2 2 2 2
5 4 9 8 3 1 4 4 6 2 3 5 7 7 10 12 13 13 12 12 12 13 13 12 12 9 9 9 8 6 6 5 5 4 4 3 3 3 3 4 4 3 3 3 3 2 2 2 2
8 8 6 6 6 4 4 3 4 4 3 5 7 9 8 9 10 11 10 11 11 10 10 10 11 10 9 8 7 7 6 5 5 4 4 4 4 3 4 4 4 3 3 3 3 2 2 3 3
3 4 6 5 6 7 3 7 5 6 5 7 8 7 7 7 9 10 10 10 10 9 9 9 9 8 8 8 7 7 6 6 5 4 5 4 4 4 4 4 4 4 3 3 3 3 3 3 3
6 7 8 6 4 5 5 7 4 6 6 7 7 6 6 7 8 9 10 9 9 9 9 10 10 9 9 8 7 7 6 5 5 5 5 4 4 4 4 4 4 4 4 4 4 4 3 4 3
Wind_Direction
157 160 161 125 49 54 81 86 96 83 71 69 80 85 82 71 99 125 169 143 137 135 128 113 105 99 93 87 83 81 88 94 95 96 100 103 105 109 111 112 113 116 117 117 117 118 118 118 119
156 163 141 59 77 83 79 98 98 101 117 106 82 83 77 73 91 115 133 141 136 135 134 121 111 105 98 92 89 89 90 94 97 98 100 102 104 107 111 113 115 117 118 119 119 119 119 119 119
160 170 94 72 102 131 125 110 107 105 108 100 89 68 71 99 111 126 147 143 129 126 130 125 115 111 106 100 95 93 95 97 101 103 103 104 106 109 112 115 116 118 120 121 122 122 122 122 121
145 78 52 75 112 139 134 128 117 107 87 82 92 72 65 99 115 135 141 136 123 120 123 125 119 116 113 107 101 98 99 100 103 107 108 109 109 112 114 116 117 118 120 122 123 124 123 123 123
110 94 60 75 98 108 118 123 114 109 93 94 94 97 83 85 116 131 135 130 125 120 116 122 121 119 116 112 109 107 106 106 109 112 113 113 113 114 116 117 119 121 122 125 126 126 125 125 125
89 86 84 101 105 106 112 117 107 105 112 110 107 107 104 116 125 134 134 132 131 130 126 125 125 123 123 121 118 116 115 115 115 117 118 117 117 117 119 122 123 124 123 126 128 129 129 129 128
132 107 142 139 122 119 128 124 119 125 126 127 127 105 118 128 140 139 133 134 133 130 128 120 122 127 131 129 126 124 122 124 123 124 124 123 123 123 123 124 125 126 127 129 131 132 134 134 135
163 111 110 123 125 127 133 115 127 130 120 132 129 126 152 163 144 135 131 132 132 132 132 128 119 119 132 134 136 132 130 133 134 133 134 134 132 131 131 130 132 134 135 136 137 139 142 143 145
147 97 150 163 146 138 124 109 106 105 117 126 111 129 149 147 131 122 121 125 135 141 145 144 141 145 145 148 147 140 137 138 140 141 142 138 131 132 137 143 144 144 145 147 149 152 155 158 159
138 144 190 175 152 143 132 127 124 107 107 107 107 117 134 134 128 128 131 138 148 152 158 158 160 166 162 157 142 144 139 133 133 141 143 139 144 156 155 158 157 157 159 161 167 176 176 172 160
144 159 162 145 143 140 134 130 117 120 127 141 140 143 146 141 137 139 141 145 152 156 155 160 160 164 162 148 145 150 140 140 149 158 157 153 152 158 155 155 158 160 166 166 176 183 185 179 160
121 148 138 137 138 132 136 130 119 130 149 150 145 146 145 146 148 148 149 148 143 147 153 153 151 148 145 140 146 153 150 153 159 162 160 151 149 153 161 163 167 171 168 169 181 186 195 187 177
113 131 115 123 122 128 124 125 122 132 140 143 143 146 151 153 153 156 154 146 141 140 141 142 138 132 129 127 142 149 156 160 160 147 154 154 150 156 161 168 170 177 170 173 180 181 190 187 176
162 134 124 124 117 125 123 124 115 145 146 148 151 155 160 160 156 150 149 148 146 144 147 147 138 130 125 126 131 141 152 150 143 144 152 149 147 153 154 154 159 168 168 177 179 177 168 169 158
96 104 94 124 123 130 114 111 143 156 152 155 161 163 163 161 156 158 160 160 156 151 152 151 143 132 126 128 129 133 140 138 140 148 149 146 144 147 146 144 151 164 158 160 156 141 118 130 130
51 78 103 237 149 150 122 158 168 163 157 162 170 169 166 167 166 166 162 157 153 149 149 153 145 135 132 130 118 119 126 127 145 149 147 147 145 146 142 147 158 153 134 135 139 121 99 97 103
37 104 219 263 207 154 131 169 175 171 161 168 175 175 169 171 171 171 166 161 158 155 154 155 148 145 145 139 129 126 122 129 145 145 150 156 154 151 145 156 168 146 133 146 153 129 134 134 119
216 217 216 230 223 150 160 175 166 173 168 174 177 176 174 176 179 173 168 163 159 158 156 153 154 156 149 135 115 100 100 119 136 148 162 165 164 157 149 157 173 152 137 141 141 137 132 142 143
178 188 218 230 209 160 188 179 176 178 176 178 182 183 182 184 182 172 167 161 157 157 156 156 154 160 150 138 137 134 147 159 154 172 171 168 169 160 152 153 153 145 145 164 157 135 119 109 116
173 191 232 255 170 146 157 191 185 184 188 183 185 191 189 183 176 173 169 165 166 168 166 161 164 166 165 161 161 162 157 168 175 187 183 182 173 172 166 157 158 153 145 142 143 134 129 157 139
215 200 207 206 106 60 96 349 237 213 199 190 189 191 187 185 182 179 174 174 170 173 173 170 167 166 168 161 139 118 87 55 56 171 192 198 183 172 162 160 157 156 154 160 165 153 147 161 195
233 222 200 184 134 190 151 197 251 211 208 202 197 195 193 189 183 180 176 176 178 179 173 165 167 167 169 161 155 156 162 178 202 194 190 192 187 173 164 164 160 158 154 155 170 154 148 144 165
217 215 183 173 142 109 138 150 259 202 214 218 207 200 196 191 183 182 180 180 178 175 172 170 167 173 176 170 172 169 179 190 192 176 162 174 182 181 176 167 156 156 159 162 160 150 149 154 160
205 78 48 53 78 228 230 165 248 207 211 215 211 206 199 193 188 185 179 172 173 174 174 172 171 180 180 177 176 177 179 181 175 185 180 187 189 189 181 167 162 165 166 169 172 164 161 170 168
139 98 39 0 12 249 239 185 240 224 205 201 203 203 196 189 184 179 173 172 175 177 178 177 176 182 184 181 184 186 187 186 188 194 192 187 185 195 202 181 170 172 177 174 169 161 171 174 172
198 146 160 187 215 269 291 225 250 227 203 195 190 189 183 180 177 178 178 176 178 179 178 178 181 185 184 185 189 190 191 188 193 196 192 193 193 199 198 183 179 179 176 174 165 163 178 167 176
175 181 168 142 170 228 265 274 306 258 179 181 175 168 180 179 172 172 174 174 176 180 183 182 183 185 188 189 187 190 192 191 195 198 193 195 198 196 184 175 174 177 173 173 167 173 182 169 183
167 160 109 125 159 219 266 243 233 233 189 170 170 175 177 177 171 168 173 177 178 177 179 182 182 185 187 189 190 192 193 195 198 192 194 195 199 188 173 171 172 178 179 180 175 182 193 182 200
190 142 126 133 160 161 217 259 222 185 185 165 166 159 160 165 166 167 171 177 173 168 172 180 182 182 187 190 190 191 192 193 193 198 199 196 196 187 185 186 180 181 187 184 180 195 193 192 210
182 177 148 154 209 165 166 257 251 173 163 156 159 162 164 153 154 169 173 169 167 173 175 179 185 187 192 192 189 193 192 188 193 201 202 196 198 196 192 189 186 192 192 187 187 198 194 195 207